Probability
38 40 44 49 50 50 52 52 50 46 46 47 46 44 43 41 38 37 38 37 36 33 31 32 37 38 35 31 31 31 27 21 19 17 13 8 7 10 13 14 14 15 15
36 38 42 44 46 47 50 51 48 44 43 44 45 44 44 40 36 35 34 32 31 29 27 29 32 34 33 30 28 26 22 18 17 15 11 6 5 7 9 11 12 11 11
31 32 34 37 39 41 44 45 43 41 39 40 42 42 40 36 32 29 28 25 24 24 24 24 25 26 27 26 23 19 17 15 14 13 9 6 4 5 7 8 9 8 8
24 24 25 28 29 31 34 36 36 35 34 34 36 36 34 30 26 23 22 20 19 18 20 20 19 19 21 21 20 17 15 14 13 12 9 6 4 4 5 6 7 8 8
17 17 18 20 20 21 24 26 27 29 28 26 28 30 28 25 21 19 17 15 14 13 14 13 12 13 14 16 15 13 12 11 10 9 7 4 3 2 2 2 4 5 6
13 13 14 15 15 16 17 18 20 22 22 20 20 22 22 19 18 17 16 15 13 11 10 9 7 7 8 9 8 7 6 4 4 4 2 1 1 1 0 0 1 2 3
10 9 9 10 11 11 11 13 15 16 16 15 15 16 16 14 14 14 15 14 11 9 8 7 6 4 4 5 4 4 3 2 1 1 0 0 0 0 0 0 0 1 2
6 5 4 5 6 6 7 8 10 10 9 10 12 13 12 10 9 9 9 8 7 6 6 6 5 4 3 4 4 3 2 2 2 1 0 0 0 0 1 1 0 0 1
3 2 2 3 3 3 4 5 6 6 5 6 7 8 7 6 4 4 4 3 3 3 3 3 3 3 2 3 3 2 1 1 1 1 0 0 0 0 0 1 1 0 0
2 1 1 2 2 3 3 3 4 4 3 3 4 4 4 3 1 1 1 2 2 1 1 1 1 1 1 1 1 1 0 0 0 0 0 0 0 0 0 0 0 0 0
1 0 1 1 1 2 3 3 3 3 3 3 3 3 2 1 0 0 0 1 1 0 0 0 0 0 0 0 0 0 0 0 0 0 0 0 0 0 0 0 0 0 0
0 0 0 1 2 3 3 3 3 3 3 3 2 1 1 0 0 0 0 0 0 0 0 0 0 0 0 0 0 0 0 0 0 0 0 0 0 0 0 0 0 0 0
0 0 0 1 2 3 3 3 3 3 2 1 1 0 0 0 0 0 0 0 0 0 0 0 0 0 0 0 0 0 0 0 0 0 0 0 0 0 0 0 0 0 0
0 0 0 1 2 2 2 2 2 1 1 0 0 0 0 0 0 0 0 0 0 0 0 0 0 0 0 0 0 0 0 0 0 0 0 0 0 0 0 0 0 0 0
0 0 0 0 1 1 1 1 1 0 0 0 0 0 0 0 0 0 0 0 0 0 0 0 0 0 0 0 0 0 0 0 0 0 0 0 0 0 0 0 0 0 0
0 0 0 0 0 0 0 0 0 0 0 0 0 0 0 0 0 0 0 0 0 0 0 0 0 0 0 0 0 0 0 0 0 0 0 0 0 0 0 0 0 0 0
0 0 0 0 0 0 0 0 0 0 0 0 0 0 0 0 0 0 0 0 0 0 0 0 0 0 0 0 0 0 0 0 0 0 0 0 0 0 0 0 0 0 0
0 0 0 0 0 0 0 0 0 0 0 0 0 0 0 0 0 0 0 0 0 0 0 0 0 0 0 0 0 0 0 0 0 0 0 0 0 0 0 0 0 0 0
1 0 0 0 0 0 0 0 0 0 0 0 0 0 0 0 0 0 0 0 0 0 0 0 0 0 0 0 0 0 0 0 0 0 0 0 0 0 0 0 0 0 0
2 1 0 0 0 0 0 0 0 0 0 0 0 0 0 0 0 0 0 0 0 0 0 0 0 0 0 0 0 0 0 0 0 0 0 0 0 0 0 0 0 0 0
2 1 0 0 0 0 0 0 0 0 0 0 0 0 0 0 0 0 0 0 0 0 0 0 0 0 0 0 0 0 0 0 0 0 0 0 0 0 0 0 0 0 0
2 1 0 0 0 0 0 0 0 0 0 0 0 0 0 0 0 0 0 0 0 0 0 0 0 0 0 0 0 0 0 0 0 0 0 0 0 0 0 0 0 0 0
1 0 0 0 0 0 0 0 0 0 0 0 0 0 0 0 0 0 0 0 0 0 0 0 0 0 0 0 0 0 0 0 0 0 0 0 0 0 0 0 0 0 0
0 0 0 0 0 0 0 0 0 0 0 0 0 0 0 0 0 0 0 0 0 0 0 0 0 0 0 0 0 0 0 0 0 0 0 0 0 0 0 0 0 0 0
0 0 0 0 0 0 0 0 0 0 0 0 0 0 0 0 0 0 0 0 0 0 0 0 0 0 0 0 0 0 0 0 0 0 0 0 0 0 0 0 0 0 0
0 0 0 0 0 0 0 0 0 0 0 0 0 0 0 0 0 0 0 0 0 0 0 0 0 0 0 0 0 0 0 0 0 0 0 0 0 0 0 0 0 0 0
Wind_Speed
8 9 9 10 10 9 8 7 5 4 2 1 1 1 1 2 2 3 3 2 2 1 1 0 0 1 0 1 2 2 3 2 2 2 2 1 2 2 2 2 3 3 4
9 9 9 10 10 9 9 7 6 5 3 1 1 2 2 2 3 3 4 4 3 2 1 1 1 0 1 1 1 2 2 2 2 2 2 2 1 1 2 2 3 3 3
9 8 9 10 10 10 9 7 7 6 5 4 3 3 3 2 3 3 3 5 5 4 4 3 2 2 2 2 1 1 2 2 1 1 1 2 2 2 1 2 3 3 3
9 9 10 10 10 10 9 9 8 7 7 6 5 4 3 3 3 3 3 5 5 6 5 5 4 4 3 3 3 2 1 2 1 1 1 1 2 3 2 2 2 3 3
10 10 10 10 10 10 9 9 8 8 8 7 7 5 4 4 4 4 5 5 6 7 7 6 5 5 4 5 4 4 4 2 2 1 1 1 1 1 2 3 2 2 2
10 10 11 10 10 10 9 9 9 9 8 8 7 6 6 5 5 5 5 5 5 5 7 7 6 6 5 6 5 5 5 4 3 2 2 1 1 1 1 2 3 2 2
10 10 10 10 10 10 10 9 9 9 8 8 8 7 6 6 6 5 5 5 5 5 6 7 6 6 6 6 5 5 6 5 4 3 2 2 2 1 1 2 2 3 2
10 10 10 10 9 10 9 9 9 8 9 8 7 7 7 5 5 6 5 6 5 5 6 6 6 6 6 6 6 5 5 5 5 5 4 3 3 3 2 2 2 2 2
11 10 9 9 9 9 9 9 9 9 8 8 8 8 8 7 7 7 6 6 5 5 6 6 6 6 7 7 6 5 6 5 5 5 5 4 3 3 3 2 2 1 2
10 10 8 8 8 8 8 9 9 8 8 8 8 7 8 8 7 7 7 7 6 6 6 6 6 6 7 7 6 6 6 6 5 5 6 5 4 3 3 2 2 2 1
10 9 8 8 8 8 8 8 8 8 8 8 8 9 8 8 8 7 7 7 6 6 6 6 6 7 7 6 6 6 6 6 6 6 6 6 6 4 4 3 4 4 3
9 9 8 8 7 8 8 8 8 8 8 8 8 8 8 8 8 7 7 7 7 6 6 6 7 7 7 6 6 6 6 6 6 6 6 6 6 6 5 4 4 3 2
9 8 8 7 7 7 7 8 8 8 7 8 9 9 8 8 8 7 6 6 6 6 6 6 6 6 6 6 6 6 6 6 6 6 6 6 6 6 5 5 4 3 3
9 8 7 7 7 7 7 8 8 8 8 8 9 8 8 7 7 6 6 6 6 6 6 6 6 6 7 7 6 5 5 5 5 6 6 7 7 6 6 5 6 4 3
9 8 8 7 7 7 7 8 8 7 7 8 8 8 7 6 6 6 6 6 6 6 5 5 6 6 7 7 6 4 5 4 5 5 5 5 6 7 6 5 5 5 4
9 9 8 9 8 8 8 8 8 7 7 7 7 7 6 6 6 5 5 5 5 5 5 5 7 7 7 9 11 8 4 4 3 3 3 4 3 3 3 4 4 4 4
10 9 9 9 8 8 8 7 7 6 6 6 6 6 5 5 4 5 5 4 4 4 4 5 6 7 7 10 11 11 4 3 3 3 2 4 6 5 4 2 1 1 1
10 9 9 9 8 8 7 7 6 5 5 5 5 5 4 5 5 5 4 4 3 3 4 5 6 6 7 9 10 11 3 2 3 4 5 5 6 7 7 5 3 1 0
9 8 8 9 8 7 7 6 5 5 5 5 5 5 5 5 5 4 4 3 3 3 3 4 5 5 5 7 8 9 3 1 4 5 6 5 5 7 9 5 4 4 3
9 9 9 9 8 6 6 5 5 5 5 5 5 4 4 4 4 4 3 3 2 3 4 5 5 5 5 5 8 10 3 3 3 4 5 8 6 6 8 5 5 5 5
10 10 9 8 7 6 5 5 5 5 4 4 4 4 4 3 4 3 2 2 2 3 4 4 4 5 4 4 7 9 5 5 3 3 3 3 4 5 6 4 2 3 4
11 10 9 8 6 5 5 5 5 5 4 4 4 4 3 3 4 3 2 2 2 3 3 3 4 4 3 4 4 5 5 5 4 3 3 2 3 5 6 5 5 8 7
10 9 9 8 6 5 5 6 5 4 4 4 4 3 4 3 3 2 2 2 1 1 2 3 3 4 3 2 2 3 5 5 3 3 3 2 3 5 5 5 7 7 4
9 8 9 8 7 5 6 5 5 4 4 4 4 3 3 3 2 2 3 4 4 4 3 3 3 3 4 3 3 2 1 2 2 3 3 4 5 5 5 4 3 2 1
8 8 8 7 7 6 6 5 5 4 3 3 3 3 3 4 3 5 5 6 6 5 5 5 4 4 4 3 4 5 5 5 5 6 3 3 2 2 1 1 1 1 1
9 8 7 7 7 7 6 5 5 4 3 3 2 2 3 3 4 5 5 8 6 6 8 7 5 4 5 2 3 5 6 7 8 5 3 2 2 2 2 2 2 2 2
Wind_Direction
81 70 63 61 59 60 58 59 55 43 52 79 116 91 91 85 63 56 58 60 60 21 18 129 188 261 185 142 129 129 133 135 125 113 104 78 75 77 75 90 104 100 95
86 72 68 65 58 55 54 55 50 44 46 55 92 122 116 81 72 61 53 46 53 48 31 56 114 114 159 123 137 143 151 162 168 161 161 157 129 74 68 73 79 79 77
95 77 67 63 59 53 48 48 44 41 39 36 54 70 74 71 65 57 56 43 46 50 48 51 66 63 76 92 95 136 165 168 178 91 156 166 160 135 85 68 72 74 66
95 86 74 64 59 56 55 51 51 46 42 44 51 65 79 78 64 61 62 53 49 49 50 50 57 61 66 71 70 62 68 131 149 107 45 61 110 145 133 95 80 83 74
92 85 79 72 65 61 58 55 54 50 47 51 53 60 69 71 75 75 72 63 53 47 47 49 56 57 60 65 63 64 63 66 63 71 85 67 50 86 140 148 143 102 79
93 84 78 72 67 62 59 56 55 53 47 49 52 58 69 71 79 75 66 63 59 50 45 50 51 52 53 55 59 60 67 68 65 55 57 79 90 106 111 131 151 135 110
98 87 77 70 61 57 56 56 55 55 52 50 49 50 61 67 67 68 69 67 64 56 47 51 52 55 56 56 57 61 61 60 62 57 48 50 52 64 88 115 130 136 136
95 85 76 71 66 60 57 57 55 55 53 53 54 54 55 61 66 68 72 72 68 63 55 58 59 58 61 63 62 65 61 58 57 56 51 52 41 39 51 80 110 141 147
98 90 81 75 69 63 57 57 57 56 53 54 58 61 60 61 65 69 69 71 68 72 66 64 67 66 66 66 64 64 62 57 53 51 49 53 49 42 38 45 68 123 155
102 95 87 79 72 71 67 64 63 60 56 54 54 63 64 65 67 71 69 69 69 69 70 67 67 67 67 67 68 65 63 66 58 52 46 42 36 37 40 41 31 32 73
108 100 92 85 79 74 73 72 70 67 65 64 64 62 63 64 68 69 70 69 67 65 65 63 64 62 59 60 66 67 65 66 60 56 54 47 36 27 26 31 34 36 52
108 101 96 90 85 79 77 75 73 72 72 74 73 70 66 65 67 67 67 69 68 65 66 64 66 67 63 58 62 69 66 65 63 57 51 45 43 33 26 25 37 40 56
109 102 96 89 89 88 87 84 78 78 76 78 78 73 68 65 64 64 65 66 70 70 66 64 65 66 64 62 60 63 67 67 64 60 58 49 42 34 24 24 21 26 46
118 111 103 97 98 97 94 90 85 81 80 79 78 74 70 68 67 65 64 61 59 63 65 65 65 62 59 52 49 58 64 66 64 60 57 51 44 31 9 32 25 25 20
123 117 114 109 105 100 96 93 89 81 78 81 81 78 75 71 68 66 63 59 57 61 61 64 64 61 56 42 31 44 76 72 71 74 76 73 70 57 36 39 26 21 17
131 128 125 121 118 114 107 100 95 90 86 84 83 83 83 76 73 75 72 66 63 61 62 66 67 62 54 35 30 27 43 64 70 82 97 113 98 87 72 55 41 31 31
137 136 131 127 124 119 114 110 107 104 97 94 93 92 92 86 80 81 78 73 75 77 77 80 82 77 52 33 25 14 3 52 50 48 47 64 68 40 25 8 264 245 239
140 136 131 127 122 121 120 116 115 116 113 108 101 94 88 83 82 84 79 74 70 72 76 81 83 81 54 30 18 357 345 75 72 58 55 66 56 32 9 348 3 26 154
131 128 127 127 128 129 128 126 125 121 116 110 103 97 87 85 86 83 79 81 84 80 82 84 85 86 63 29 16 359 323 99 87 74 53 60 69 35 11 360 6 18 12
125 127 127 126 128 127 130 131 122 111 107 104 101 100 99 96 94 88 84 86 94 92 89 89 89 89 78 37 22 3 356 51 82 97 90 66 54 32 19 6 7 13 358
126 127 127 126 125 126 129 128 119 112 108 106 106 103 97 97 97 88 88 96 92 89 91 99 97 91 86 65 34 24 17 9 30 80 85 73 38 20 4 347 346 347 316
127 127 125 122 123 128 133 122 114 115 114 109 107 104 97 89 93 92 91 95 98 107 108 109 110 106 97 64 46 30 27 6 15 40 60 71 0 341 328 323 324 324 315
128 128 127 125 127 132 130 123 118 113 109 103 100 102 100 90 99 106 106 111 116 101 114 128 128 124 118 93 30 360 5 11 17 17 359 320 293 307 297 277 297 314 316
130 132 132 131 131 134 128 125 128 127 122 112 107 107 111 106 88 63 62 55 40 40 51 66 84 95 84 57 23 354 8 355 8 347 305 278 273 280 294 296 275 264 325
133 133 133 133 133 133 133 135 134 131 121 119 119 112 101 97 86 70 50 61 57 50 40 35 49 66 73 44 15 7 13 3 8 335 305 280 271 251 254 310 327 337 14
135 136 139 140 138 137 138 140 141 138 136 137 137 133 130 128 124 117 96 60 80 83 72 60 59 74 87 89 7 359 348 339 342 337 313 321 342 357 6 359 355 18 36